Weather History for Kuantan, Malaysia

Change the Weather History Date:

Friday, December 7, 2012

  Actual Average Record
Temperature  
Mean Temperature 82 °F -  
Max Temperature 90 °F 84 °F - ()
Min Temperature 73 °F 72 °F - ()
Cooling Degree Days 16    
Growing Degree Days 32 (Base 50)    
Moisture  
Dew Point 77 °F    
Average Humidity 89    
Maximum Humidity 100    
Minimum Humidity 69    
Precipitation  
Precipitation 0.00 in 0.66 in - ()
Sea Level Pressure  
Sea Level Pressure 29.84 in    
Wind  
Wind Speed 4 mph ()    
Max Wind Speed 7 mph    
Max Gust Speed -    
Visibility 6.5 miles    
Events      
T = Trace of Precipitation, MM = Missing Value Source: Averaged Metar Reports

Daily Weather History Graph

Daily Weather History Graph

Search for Another Location

Airport:

Trip Planner

Search our weather history database for the weather conditions in past years. The results will help you decide how hot, cold, wet, or windy it might be!

Date:

Astronomy

Dec. 07, 2012 Rise Set
Actual Time 7:01 AM MYT 6:56 PM MYT
Civil Twilight 6:38 AM MYT 7:18 PM MYT
Nautical Twilight 6:12 AM MYT 7:44 PM MYT
Astronomical Twilight 5:46 AM MYT 8:10 PM MYT
Moon 1:04 AM MYT (12/7) 1:26 PM MYT (12/7)
Length of Visible Light 12h 39m
Length of Day
11h 54m
Last Quarter, 44% of the Moon is Illuminated
Dec 7
Last Quarter
Dec 13
New
Dec 20
First Quarter
Dec 28
Full
Jan 5
Last Quarter

Hourly Weather History & Observations

Time (MYT) Temp. Heat Index Dew Point Humidity Pressure Visibility Wind Dir Wind Speed Gust Speed Precip Events Conditions
12:00 AM 77.0 °F - 75.2 °F 94% 29.86 in 5.0 mi North 4.6 mph - N/A   Mostly Cloudy
1:00 AM 77.0 °F - 75.2 °F 94% 29.86 in 5.0 mi North 3.5 mph - N/A   Mostly Cloudy
2:00 AM 76 °F - 75 °F 94% 29.85 in 5 mi North 3.5 mph - -   Partly Cloudy
2:00 AM 75.2 °F - 75.2 °F 100% 29.83 in 5.0 mi North 3.5 mph - N/A   Mostly Cloudy
3:00 AM 75.2 °F - 75.2 °F 100% 29.83 in 5.6 mi North 1.2 mph - N/A   Mostly Cloudy
4:00 AM 75.2 °F - 75.2 °F 100% 29.83 in 5.0 mi North 2.3 mph - N/A   Mostly Cloudy
5:00 AM 76 °F - 75 °F 94% 29.83 in 4 mi North 3.5 mph - -   Mist
5:00 AM 75.2 °F - 75.2 °F 100% 29.83 in 4.3 mi North 3.5 mph - N/A   Mostly Cloudy
6:00 AM 75.2 °F - 75.2 °F 100% 29.83 in 4.3 mi North 4.6 mph - N/A   Mostly Cloudy
7:00 AM 75.2 °F - 75.2 °F 100% 29.83 in 5.0 mi North 3.5 mph - N/A   Mostly Cloudy
8:00 AM 77 °F - 75 °F 93% 29.88 in 7 mi North 5.8 mph - -   Mist
8:00 AM 77.0 °F - 75.2 °F 94% 29.86 in 6.2 mi North 5.8 mph - N/A   Mostly Cloudy
9:00 AM 78.8 °F - 77.0 °F 94% 29.89 in 6.2 mi North 4.6 mph - N/A   Mostly Cloudy
10:00 AM 82.4 °F 92.4 °F 78.8 °F 89% 29.89 in 6.2 mi NNW 6.9 mph - N/A   Mostly Cloudy
11:00 AM 84 °F - 80 °F 84% 29.90 in 12 mi NNW 5.8 mph - -   Haze
11:00 AM 84.2 °F 98.3 °F 80.6 °F 89% 29.89 in 6.2 mi NNW 5.8 mph - N/A   Mostly Cloudy
12:00 PM 86.0 °F 101.9 °F 80.6 °F 84% 29.86 in 6.2 mi North 5.8 mph - N/A   Mostly Cloudy
1:00 PM 87.8 °F 104.9 °F 80.6 °F 79% 29.83 in 6.2 mi NNE 6.9 mph - N/A   Mostly Cloudy
2:00 PM 88 °F - 80 °F 71% 29.82 in 12 mi ENE 4.6 mph - -   Haze
2:00 PM 87.8 °F 104.9 °F 80.6 °F 79% 29.80 in 6.2 mi ENE 4.6 mph - N/A   Mostly Cloudy
3:00 PM 89.6 °F 108.2 °F 80.6 °F 75% 29.77 in 6.2 mi ENE 5.8 mph - N/A   Mostly Cloudy
4:00 PM 87.8 °F 104.9 °F 80.6 °F 79% 29.74 in 6.2 mi ENE 6.9 mph - N/A   Mostly Cloudy
5:00 PM 88 °F - 79 °F 69% 29.75 in 12 mi NE 5.8 mph - -   Haze
5:00 PM 87.8 °F 102.5 °F 78.8 °F 75% 29.74 in 6.2 mi NE 5.8 mph - N/A   Mostly Cloudy
6:00 PM 84.2 °F 94.1 °F 77.0 °F 79% 29.77 in 6.2 mi NE 4.6 mph - N/A   Mostly Cloudy
7:00 PM 82.4 °F 90.9 °F 77.0 °F 84% 29.80 in 6.2 mi North 2.3 mph - N/A   Mostly Cloudy
8:00 PM 80 °F - 76 °F 85% 29.83 in 9 mi North 2.3 mph - -   Haze
8:00 PM 80.6 °F 87.1 °F 77.0 °F 89% 29.83 in 6.2 mi North 2.3 mph - N/A   Mostly Cloudy
9:00 PM 78.8 °F - 75.2 °F 89% 29.86 in 6.2 mi North 2.3 mph - N/A   Mostly Cloudy
10:00 PM 77.0 °F - 75.2 °F 94% 29.89 in 6.2 mi NNE 2.3 mph - N/A   Mostly Cloudy
11:00 PM 77 °F - 75 °F 93% 29.88 in 7 mi North 1.2 mph - -   Haze
11:00 PM 77.0 °F - 75.2 °F 94% 29.89 in 6.2 mi North 1.2 mph - N/A   Mostly Cloudy